Wharton, TX

11:47 AM CST on November 22, 2019 (GMT -0600)
Wharton Regional

Weather History for KARM - October, 2019

Change the Weather History Date:

Wednesday, October 23, 2019

  Actual Average (WUND) Record (WUND)
Temperature  
Mean Temperature 66 °F -  
Max Temperature 82 °F - - (-1)
Min Temperature 51 °F - - (-1)
Cooling Degree Days 2    
Growing Degree Days 16 (Base 50)    
Moisture  
Dew Point 53 °F    
Average Humidity 64    
Maximum Humidity 86    
Minimum Humidity 33    
Precipitation  
Precipitation 0.00 in - - ()
Sea Level Pressure  
Sea Level Pressure 30.07 in    
Wind  
Wind Speed 4 mph ()    
Max Wind Speed 17 mph    
Max Gust Speed 23 mph    
Visibility 10.0 miles    
Events      
Averages and records for this station are not official NWS values.
T = Trace of Precipitation, MM = Missing Value Source: Averaged Metar Reports

Daily Weather History Graph

Daily Weather History Graph

Search for Another Location

Airport or City:

Astronomy

Oct. 23, 2019 Rise Set
Actual Time 7:30 AM CDT 6:46 PM CDT
Civil Twilight 7:06 AM CDT 7:10 PM CDT
Nautical Twilight 6:38 AM CDT 7:38 PM CDT
Astronomical Twilight 6:11 AM CDT 8:05 PM CDT
Moon 2:24 AM CDT (10/23) 4:07 PM CDT (10/23)
Length of Visible Light 12h 03m
Length of Day
11h 15m
Waning Crescent, 26% of the Moon is Illuminated
Oct 23
Waning Crescent
Oct 27
New
Nov 4
First Quarter
Nov 12
Full
Nov 19
Last Quarter

Hourly Weather History & Observations

Time (CDT) Temp. Heat Index Dew Point Humidity Pressure Visibility Wind Dir Wind Speed Gust Speed Precip Events Conditions
12:15 AM 55.4 °F - 50.0 °F 82% 30.14 in 10.0 mi Calm Calm - N/A   Clear
12:55 AM 54.0 °F - 49.5 °F 85% 30.13 in 10.0 mi Calm Calm - N/A   Clear
1:15 AM 53.1 °F - 47.7 °F 82% 30.13 in 10.0 mi Calm Calm - N/A   Clear
1:35 AM 53.2 °F - 47.5 °F 81% 30.12 in 10.0 mi Calm Calm - N/A   Clear
2:10 AM 53.1 °F - 47.7 °F 82% 30.12 in 10.0 mi Calm Calm - N/A   Clear
2:35 AM 54.5 °F - 46.9 °F 76% 30.11 in 10.0 mi NE 3.5 mph - N/A   Clear
2:55 AM 53.4 °F - 46.4 °F 77% 30.11 in 10.0 mi Calm Calm - N/A   Clear
3:15 AM 52.9 °F - 46.9 °F 80% 30.11 in 10.0 mi Calm Calm - N/A   Clear
3:35 AM 55.0 °F - 47.3 °F 75% 30.10 in 10.0 mi NE 3.5 mph - N/A   Clear
4:00 AM 53.1 °F - 47.5 °F 81% 30.10 in 10.0 mi Calm Calm - N/A   Clear
4:15 AM 53.2 °F - 47.3 °F 80% 30.10 in 10.0 mi Calm Calm - N/A   Clear
4:35 AM 52.9 °F - 47.3 °F 81% 30.10 in 10.0 mi NE 3.5 mph - N/A   Clear
4:55 AM 52.7 °F - 47.3 °F 82% 30.10 in 10.0 mi Calm Calm - N/A   Clear
5:15 AM 52.7 °F - 47.3 °F 82% 30.10 in 10.0 mi Calm Calm - N/A   Clear
5:35 AM 52.7 °F - 47.3 °F 82% 30.10 in 10.0 mi Calm Calm - N/A   Clear
5:55 AM 51.8 °F - 47.7 °F 86% 30.10 in 10.0 mi Calm Calm - N/A   Clear
6:15 AM 51.8 °F - 47.5 °F 85% 30.10 in 10.0 mi NNE 3.5 mph - N/A   Clear
6:35 AM 52.2 °F - 47.8 °F 85% 30.10 in 10.0 mi Calm Calm - N/A   Clear
6:55 AM 52.2 °F - 48.2 °F 86% 30.10 in 10.0 mi Calm Calm - N/A   Clear
7:15 AM 52.3 °F - 48.2 °F 86% 30.10 in 10.0 mi Calm Calm - N/A   Clear
7:35 AM 52.7 °F - 48.2 °F 85% 30.10 in 10.0 mi Calm Calm - N/A   Clear
7:55 AM 52.7 °F - 48.6 °F 86% 30.10 in 10.0 mi Calm Calm - N/A   Clear
8:20 AM 55.9 °F - 51.8 °F 86% 30.10 in 10.0 mi Calm Calm - N/A   Clear
8:40 AM 59.9 °F - 53.1 °F 78% 30.11 in 10.0 mi Calm Calm - N/A   Clear
8:55 AM 62.1 °F - 54.1 °F 75% 30.11 in 10.0 mi East 3.5 mph - N/A   Clear
9:20 AM 64.8 °F - 55.6 °F 72% 30.12 in 10.0 mi East 4.6 mph - N/A   Clear
9:55 AM 70.0 °F - 56.3 °F 62% 30.12 in 10.0 mi East 6.9 mph - N/A   Clear
10:15 AM 72.5 °F - 56.3 °F 57% 30.12 in 10.0 mi ESE 6.9 mph - N/A   Clear
10:35 AM 74.3 °F - 55.8 °F 52% 30.12 in 10.0 mi ESE 9.2 mph - N/A   Clear
10:55 AM 75.7 °F - 56.1 °F 50% 30.12 in 10.0 mi ESE 8.1 mph - N/A   Clear
11:15 AM 77.2 °F - 56.3 °F 48% 30.12 in 10.0 mi ESE 8.1 mph - N/A   Clear
11:35 AM 78.3 °F - 54.9 °F 44% 30.11 in 10.0 mi ESE 13.8 mph 21.9 mph N/A   Clear
11:55 AM 79.3 °F - 55.8 °F 44% 30.11 in 10.0 mi SE 11.5 mph - N/A   Clear
12:15 PM 81.0 °F 80.7 °F 55.0 °F 41% 30.11 in 10.0 mi SE 17.3 mph 20.7 mph N/A   Clear
12:40 PM 81.5 °F - 51.8 °F 36% 30.10 in 10.0 mi SE 17.3 mph 21.9 mph N/A   Clear
12:55 PM 81.3 °F - 51.4 °F 35% 30.09 in 10.0 mi SE 12.7 mph 21.9 mph N/A   Clear
1:15 PM 81.5 °F - 51.1 °F 35% 30.08 in 10.0 mi SE 11.5 mph 21.9 mph N/A   Clear
1:35 PM 82.0 °F - 52.3 °F 36% 30.07 in 10.0 mi SE 15.0 mph 18.4 mph N/A   Clear
1:55 PM 81.9 °F - 51.3 °F 34% 30.06 in 10.0 mi SE 12.7 mph 18.4 mph N/A   Scattered Clouds
2:15 PM 81.7 °F - 51.1 °F 34% 30.05 in 10.0 mi SSE 17.3 mph - N/A   Clear
2:35 PM 81.7 °F - 50.9 °F 34% 30.04 in 10.0 mi SSE 15.0 mph - N/A   Clear
2:55 PM 81.9 °F - 50.5 °F 34% 30.03 in 10.0 mi SSE 16.1 mph 23.0 mph N/A   Clear
3:15 PM 81.9 °F - 50.2 °F 33% 30.02 in 10.0 mi SSE 15.0 mph 23.0 mph N/A   Clear
3:40 PM 81.7 °F - 51.6 °F 35% 30.02 in 10.0 mi SE 13.8 mph 21.9 mph N/A   Clear
3:50 PM 81.3 °F - 51.3 °F 35% 30.02 in 10.0 mi SSE 16.1 mph - N/A   Clear
4:15 PM 80.8 °F 80.3 °F 53.2 °F 38% 30.01 in 10.0 mi SE 17.3 mph 21.9 mph N/A   Clear
4:35 PM 80.4 °F 80.2 °F 54.0 °F 40% 30.01 in 10.0 mi SE 16.1 mph 20.7 mph N/A   Clear
4:55 PM 79.5 °F - 55.4 °F 43% 30.01 in 10.0 mi SE 13.8 mph 20.7 mph N/A   Scattered Clouds
5:15 PM 78.3 °F - 54.9 °F 44% 30.01 in 10.0 mi SE 15.0 mph 19.6 mph N/A   Clear
5:35 PM 78.1 °F - 54.9 °F 45% 30.01 in 10.0 mi SE 15.0 mph 20.7 mph N/A   Clear
5:55 PM 77.2 °F - 55.2 °F 47% 30.01 in 10.0 mi SE 12.7 mph - N/A   Clear
6:15 PM 75.2 °F - 55.8 °F 51% 30.01 in 10.0 mi SE 9.2 mph 16.1 mph N/A   Clear
6:35 PM 74.1 °F - 55.8 °F 53% 30.01 in 10.0 mi SE 9.2 mph - N/A   Clear
6:55 PM 71.6 °F - 57.2 °F 60% 30.02 in 10.0 mi ESE 5.8 mph - N/A   Clear
7:15 PM 70.7 °F - 57.2 °F 62% 30.02 in 10.0 mi ESE 6.9 mph - N/A   Clear
7:35 PM 69.8 °F - 57.2 °F 64% 30.02 in 10.0 mi ESE 6.9 mph - N/A   Clear
7:55 PM 68.9 °F - 58.1 °F 68% 30.02 in 10.0 mi ESE 5.8 mph - N/A   Clear
8:15 PM 68.7 °F - 58.1 °F 69% 30.03 in 10.0 mi ESE 5.8 mph - N/A   Clear
8:35 PM 68.2 °F - 58.5 °F 71% 30.03 in 10.0 mi ESE 5.8 mph - N/A   Clear
8:55 PM 67.3 °F - 58.6 °F 74% 30.03 in 10.0 mi East 5.8 mph - N/A   Clear
9:15 PM 67.1 °F - 59.0 °F 75% 30.03 in 10.0 mi East 5.8 mph - N/A   Clear
9:35 PM 66.4 °F - 59.0 °F 77% 30.03 in 10.0 mi East 4.6 mph - N/A   Clear
9:55 PM 65.8 °F - 59.0 °F 79% 30.03 in 10.0 mi East 4.6 mph - N/A   Clear
10:15 PM 65.3 °F - 59.0 °F 80% 30.03 in 10.0 mi East 4.6 mph - N/A   Clear
10:35 PM 64.8 °F - 59.2 °F 82% 30.03 in 10.0 mi East 4.6 mph - N/A   Clear
11:00 PM 64.8 °F - 59.0 °F 82% 30.03 in 10.0 mi ENE 3.5 mph - N/A   Clear
11:15 PM 64.8 °F - 59.0 °F 82% 30.03 in 10.0 mi East 3.5 mph - N/A   Clear
11:35 PM 64.6 °F - 59.0 °F 82% 30.03 in 10.0 mi ENE 4.6 mph - N/A   Clear
11:55 PM 64.6 °F - 59.4 °F 83% 30.02 in 10.0 mi ENE 3.5 mph - N/A   Clear